#timestamp,LO_Frequency,Hit,StdDev 
1638313215.1,286047010.0,N
1638313216.0,286047010.0,N
1638313235.8,286047013.1,N
1638313255.6,286047012.4,N
1638313275.5,286047003.9,N
1638313295.3,286047004.4,N
1638313315.1,286047000.0,N
1638313335.9,286046997.6,N
1638313355.7,286046996.5,N
1638313375.6,286046993.4,N
1638313395.4,286046998.5,N
1638313415.2,286046998.8,N
1638313435.1,286047003.9,N
1638313436.0,286047003.9,N
1638313455.8,286047010.7,N
1638313475.7,286047018.0,Y
1638313495.5,286047016.3,P
1638313515.3,286047011.2,N
1638313535.2,286047005.0,N
1638313555.9,286047002.7,N
1638313575.7,286047000.0,N
1638313595.6,286046999.8,N
1638313615.4,286046993.7,N
1638313635.3,286046996.1,N
1638313655.1,286046991.4,N
1638313656.0,286046991.4,N
1638313675.8,286046990.2,N
1638313695.7,286046998.8,N
1638313715.5,286047000.6,N
1638313735.3,286046997.8,N
1638313755.2,286047002.2,N
1638313775.0,286046997.3,N
1638313775.9,286046997.3,N
1638313795.8,286046983.1,N
1638313815.6,286046995.9,N
1638313835.4,286046998.4,N
1638313855.3,286047000.7,N
1638313875.1,286047002.6,N
1638313895.8,286047000.6,N
1638313915.7,286047002.0,N
1638313935.5,286047006.7,N
1638313955.4,286047005.0,N
1638313975.2,286047000.0,N
1638313995.0,286047000.8,N
1638313995.9,286047000.8,N
1638314015.8,286047001.0,N
1638314035.6,286046999.1,N
1638314055.4,286047001.1,N
1638314075.3,286047002.6,N
1638314095.1,286047005.2,N
1638314115.9,286047004.4,N
1638314135.7,286046999.9,N
1638314155.5,286047000.2,N
1638314175.4,286047000.9,N
1638314195.2,286047011.9,N
1638314215.0,286047007.3,N
1638314215.9,286047007.3,N
1638314235.8,286047004.8,N
1638314255.6,286047005.9,N
1638314275.5,286047012.0,N
1638314295.3,286047005.0,N
1638314315.1,286047004.8,N
1638314335.9,286047007.8,N
1638314355.7,286047010.7,N
1638314375.5,286047005.0,N
1638314395.4,286047002.5,N
1638314415.2,286047002.6,N
1638314435.0,286047003.6,N
1638314436.0,286047003.6,N
1638314455.8,286047000.9,N
1638314475.6,286047001.8,N
1638314495.5,286047000.1,N
1638314515.3,286047004.0,N
1638314535.1,286046999.7,N
1638314555.9,286047002.5,N
1638314575.7,286046994.0,N
1638314595.5,286046993.7,N
1638314615.4,286046991.8,N
1638314635.2,286046993.9,N
1638314655.1,286046990.2,N
1638314656.0,286046990.2,N
1638314675.8,286046988.9,N
1638314695.6,286046987.4,N
1638314715.5,286046988.7,N
1638314735.3,286046985.4,N
1638314755.1,286046986.9,N
1638314775.9,286046991.5,N
1638314795.7,286046987.8,N
1638314815.6,286046986.5,N
1638314835.4,286046983.4,N
1638314855.2,286046981.1,N
1638314875.1,286046977.6,N
1638314876.0,286046977.6,N
1638314895.8,286046982.8,N
1638314915.6,286046983.2,N
1638314935.5,286046983.0,N
1638314955.3,286046981.6,N
1638314975.2,286046977.0,N
1638314995.9,286046976.1,N
1638315015.7,286046978.2,N
1638315035.6,286046980.8,N
1638315055.4,286046985.5,N
1638315075.2,286046989.1,N
1638315095.1,286046993.2,N
1638315096.0,286046993.2,N
1638315115.8,286046988.6,N
1638315135.7,286046987.4,N
1638315155.5,286046986.7,N
1638315175.3,286046986.4,N
1638315195.2,286046987.5,N
1638315215.0,286046985.2,Y
1638315215.9,286046985.2,P
1638315235.8,286047000.8,P
1638315255.6,286047004.1,N
1638315275.4,286047003.1,N
1638315295.3,286047001.4,N
1638315315.1,286047003.9,N
1638315335.8,286047003.3,N
1638315355.7,286047003.8,N
1638315375.5,286047003.5,N
1638315395.4,286047002.4,N
1638315415.2,286047002.5,N
1638315435.1,286047000.9,N
1638315436.0,286047000.9,N
1638315455.8,286047002.4,N
1638315475.6,286046999.4,N
1638315495.5,286046995.7,N
1638315515.3,286046995.9,N
1638315535.1,286047002.8,N
1638315555.9,286047001.0,N
1638315575.7,286047002.5,N
1638315595.6,286046998.9,N
1638315615.4,286046995.1,N
1638315635.2,286046997.0,N
1638315655.1,286046995.9,N
1638315656.0,286046995.9,N
1638315675.8,286046993.5,N
1638315695.7,286046997.0,N
1638315715.5,286046999.2,N
1638315735.3,286046997.4,N
1638315755.2,286046993.5,N
1638315775.9,286046995.5,N
1638315795.7,286046991.2,N
1638315815.6,286046996.2,N
1638315835.4,286046994.6,N
1638315855.3,286046996.9,N
1638315875.1,286046998.5,N
1638315876.0,286046998.5,N
1638315895.8,286046994.2,N
1638315915.7,286046998.1,N
1638315935.5,286046996.3,N
1638315955.3,286046993.6,N
1638315975.2,286046993.5,N
1638315995.0,286046993.9,N
1638315995.9,286046993.9,N
1638316015.8,286046995.7,N
1638316035.6,286046998.4,N
1638316055.4,286047003.0,N
1638316075.3,286047000.6,N
1638316095.1,286047001.8,N
1638316115.8,286046999.4,N
1638316135.7,286046998.4,N
1638316155.5,286046998.3,N
1638316175.4,286046997.4,N
1638316195.2,286046996.2,N
1638316215.0,286046992.7,N
1638316215.9,286046992.7,N
1638316235.8,286046993.4,N
1638316255.6,286046993.5,N
1638316275.4,286046996.0,N
1638316295.3,286047001.0,N
1638316315.1,286047000.4,N
1638316335.9,286046999.1,N
1638316355.7,286046997.4,N
1638316375.5,286046995.6,N
1638316395.4,286046996.0,N
1638316415.2,286046996.0,N
1638316435.0,286046995.9,N
1638316435.9,286046995.9,N
1638316455.8,286046995.1,N
1638316475.6,286046992.6,N
1638316495.5,286046987.1,Y
1638316515.3,286046990.4,P
1638316535.1,286046991.8,N
1638316555.9,286046996.5,N
1638316575.7,286046993.8,N
1638316595.5,286046989.8,Y
1638316615.4,286046998.2,P
1638316635.2,286046994.9,N
1638316655.1,286046995.5,N
1638316656.0,286046995.5,N
1638316675.8,286047000.8,N
1638316695.6,286046995.6,N
1638316715.5,286046990.5,Y
1638316735.3,286046994.0,P
1638316755.2,286046992.2,P
1638316775.9,286046993.4,P
1638316795.7,286046994.6,Y
